Track EUTELSAT 1-F2 (ECS 2) now! EUTELSAT 1-F2 (ECS 2) is classified as:
1 15158U 84081A 22180.59434529 .00000027 00000-0 00000-0 0 9994 2 15158 14.1378 343.4253 0012019 161.5309 218.9046 0.98795383102957